Date String (YYYY-MM-DD hh:mm:ss) UTC,Instrument flags,Ambient pressure (hPa),Sample flow (lpm),Bypass flow (lpm),Sample temperature (°C),Ambient temperature (°C),ASC tube jacket temperature (°C),LED temperature (°C),Box temperature (°C),Sample RH (%),Span deviation,Mass concentration (μg/m³),Mass concentration (μg/m³),Mass concentration (μg/m³)
DateTimeUTC,F1_M11,P_M11,Q1_M11,Q2_M11,T1_M11,T2_M11,T3_M11,T4_M11,T5_M11,U1_M11,ZSPAN_M11,X0_M11,X2_M11,X1_M11
2021-09-12 15:00:00,,0831.9,4.99,0.00,29.8,26.8,00.0,39.1,31.2,24.3,0000.7,0013.73,0006.75,0005.28
2021-09-12 15:01:00,,0831.9,5.00,0.00,29.8,27.2,00.0,39.0,31.3,24.5,0000.6,0013.65,0006.76,0005.28
2021-09-12 15:02:00,,0831.9,5.00,0.00,29.8,27.6,00.0,39.0,31.4,24.9,0000.9,0013.63,0006.78,0005.29
2021-09-12 15:03:00,,0832.0,4.99,0.00,29.8,27.9,00.0,39.0,31.4,25.1,0001.5,0012.80,0006.72,0005.27
2021-09-12 15:04:00,,0832.0,5.01,0.00,29.8,28.2,00.0,39.0,31.5,24.9,0001.5,0013.54,0006.68,0005.26
2021-09-12 15:05:00,,0832.1,4.99,0.00,29.8,28.4,00.0,39.0,31.6,25.0,0001.7,0013.78,0006.67,0005.24
2021-09-12 15:06:00,,0832.1,5.00,0.00,29.9,28.6,00.0,39.0,31.6,24.9,0001.7,0013.77,0006.68,0005.25
2021-09-12 15:07:00,,0832.1,5.01,0.00,29.9,28.7,00.0,39.0,31.7,25.0,0001.4,0013.64,0006.65,0005.26
2021-09-12 15:08:00,,0832.1,5.00,0.00,29.9,28.8,00.0,39.0,31.7,25.0,0001.2,0014.23,0006.63,0005.25
2021-09-12 15:09:00,,0832.1,5.00,0.00,30.0,28.9,00.0,39.0,31.7,25.0,0001.3,0014.24,0006.61,0005.24
2021-09-12 15:10:00,,0832.1,5.00,0.00,30.0,29.0,00.0,39.0,31.8,25.2,0000.9,0014.80,0006.59,0005.22
2021-09-12 15:11:00,,0832.0,4.99,0.00,30.0,29.1,00.0,39.0,31.8,25.1,0000.7,0015.14,0006.64,0005.21
2021-09-12 15:12:00,,0832.1,5.01,0.00,30.1,29.2,00.0,39.0,31.9,25.2,0000.8,0015.58,0006.64,0005.21
2021-09-12 15:13:00,,0832.1,5.00,0.00,30.1,29.2,00.0,39.1,31.9,25.2,0000.7,0016.23,0006.64,0005.21
2021-09-12 15:14:00,,0832.0,4.99,0.00,30.1,29.3,00.0,39.1,31.9,25.3,0000.7,0018.24,0006.64,0005.20
2021-09-12 15:15:00,,0832.0,5.02,0.00,30.1,28.4,00.0,39.1,31.8,25.2,0000.5,0017.99,0006.64,0005.18
2021-09-12 15:16:00,,0832.1,4.99,0.00,30.0,26.4,00.0,39.1,31.2,25.4,0000.2,0017.82,0006.65,0005.17
2021-09-12 15:17:00,,0832.1,4.99,0.00,29.8,25.8,00.0,39.0,31.0,25.8,0000.2,0018.28,0006.63,0005.15
2021-09-12 15:18:00,,0832.1,5.00,0.00,29.7,26.1,00.0,39.0,31.1,25.9,0000.6,0018.15,0006.59,0005.14
2021-09-12 15:19:00,,0832.1,5.01,0.00,29.6,26.6,00.0,38.9,31.1,26.3,0000.6,0019.23,0006.57,0005.13
2021-09-12 15:20:00,,0832.1,5.00,0.00,29.6,27.1,00.0,38.9,31.2,26.8,0000.6,0020.31,0006.53,0005.11
2021-09-12 15:21:00,,0832.1,5.01,0.00,29.6,27.5,00.0,38.8,31.3,27.0,0000.9,0019.72,0006.51,0005.12
2021-09-12 15:22:00,,0832.2,4.98,0.00,29.6,27.8,00.0,38.8,31.3,26.9,0001.2,0020.50,0006.45,0005.11
2021-09-12 15:23:00,,0832.2,5.00,0.00,29.7,28.1,00.0,38.8,31.4,26.9,0001.0,0021.09,0006.41,0005.09
2021-09-12 15:24:00,,0832.2,5.01,0.00,29.7,28.3,00.0,38.8,31.4,27.0,0001.2,0020.35,0006.37,0005.07
2021-09-12 15:25:00,,0832.2,4.99,0.00,29.7,28.4,00.0,38.8,31.5,27.0,0001.0,0018.81,0006.41,0005.07
2021-09-12 15:26:00,,0832.2,5.01,0.00,29.7,28.6,00.0,38.8,31.5,26.9,0001.3,0018.45,0006.41,0005.09
2021-09-12 15:27:00,,0832.3,4.99,0.00,29.8,28.7,00.0,38.8,31.6,26.8,0001.5,0019.56,0006.35,0005.08
2021-09-12 15:28:00,,0832.2,5.00,0.00,29.8,28.8,00.0,38.9,31.6,26.4,0001.5,0019.78,0006.38,0005.08
2021-09-12 15:29:00,,0832.3,5.01,0.00,29.9,28.9,00.0,38.9,31.7,26.4,0001.0,0020.02,0006.42,0005.07
2021-09-12 15:30:00,,0832.3,5.01,0.00,29.9,29.0,00.0,38.9,31.7,26.5,0000.9,0018.59,0006.41,0005.05
2021-09-12 15:31:00,,0832.2,4.98,0.00,29.9,29.0,00.0,38.9,31.7,26.3,0000.7,0017.04,0006.41,0005.06
2021-09-12 15:32:00,,0832.3,5.00,0.00,30.0,29.1,00.0,38.9,31.8,26.3,0000.5,0017.28,0006.41,0005.05
2021-09-12 15:33:00,,0832.3,4.99,0.00,30.0,29.1,00.0,39.0,31.8,26.2,0000.1,0016.09,0006.38,0005.04
2021-09-12 15:34:00,,0832.3,5.00,0.00,30.0,29.2,00.0,39.0,31.9,26.3,0000.4,0014.94,0006.36,0005.05
2021-09-12 15:35:00,,0832.3,5.01,0.00,30.1,29.3,00.0,39.0,31.9,26.3,0000.7,0014.16,0006.33,0005.05
2021-09-12 15:36:00,,0832.3,5.00,0.00,30.1,29.3,00.0,39.0,32.0,26.4,0000.6,0013.86,0006.27,0005.04
2021-09-12 15:37:00,,0832.4,4.99,0.00,30.1,29.4,00.0,39.0,32.0,26.5,0000.5,0013.70,0006.23,0005.03
2021-09-12 15:38:00,,0832.4,4.99,0.00,30.2,29.2,00.0,39.1,31.9,26.6,0000.6,0012.34,0006.24,0005.04
2021-09-12 15:39:00,,0832.4,5.01,0.00,30.1,27.3,00.0,39.1,31.4,26.8,0001.0,0012.20,0006.24,0005.05
2021-09-12 15:40:00,,0832.4,4.98,0.00,29.9,25.8,00.0,39.0,31.0,27.2,0001.3,0012.64,0006.25,0005.07
2021-09-12 15:41:00,,0832.4,5.02,0.00,29.7,25.8,00.0,39.0,31.0,27.5,0001.0,0013.80,0006.33,0005.11
2021-09-12 15:42:00,,0832.5,5.00,0.00,29.6,26.3,00.0,38.9,31.0,27.8,0001.0,0014.86,0006.37,0005.14
2021-09-12 15:43:00,,0832.5,4.99,0.00,29.6,26.8,00.0,38.9,31.1,27.9,0001.1,0014.62,0006.38,0005.17
2021-09-12 15:44:00,,0832.5,5.00,0.00,29.6,27.3,00.0,38.9,31.2,28.0,0001.1,0014.87,0006.44,0005.20
2021-09-12 15:45:00,,0832.6,5.01,0.00,29.6,27.6,00.0,38.8,31.3,27.7,0000.9,0015.25,0006.49,0005.23
2021-09-12 15:46:00,,0832.6,4.99,0.00,29.6,27.9,00.0,38.8,31.3,27.5,0000.5,0015.59,0006.56,0005.28
2021-09-12 15:47:00,,0832.6,4.99,0.00,29.7,28.2,00.0,38.8,31.4,27.6,0000.1,0015.51,0006.63,0005.34
2021-09-12 15:48:00,,0832.6,5.02,0.00,29.7,28.3,00.0,38.8,31.4,27.5,-000.0,0015.62,0006.68,0005.40
2021-09-12 15:49:00,,0832.6,4.99,0.00,29.7,28.5,00.0,38.8,31.5,27.3,0000.2,0015.78,0006.76,0005.46
2021-09-12 15:50:00,,0832.6,5.00,0.00,29.8,28.6,00.0,38.8,31.5,27.3,0000.5,0015.71,0006.80,0005.51
2021-09-12 15:51:00,,0832.6,5.00,0.00,29.8,28.7,00.0,38.8,31.6,27.5,0000.7,0015.59,0006.84,0005.56
2021-09-12 15:52:00,,0832.6,5.01,0.00,29.8,28.8,00.0,38.8,31.6,27.4,0000.8,0014.42,0006.86,0005.62
2021-09-12 15:53:00,,0832.6,4.99,0.00,29.9,28.9,00.0,38.9,31.7,27.5,0000.9,0013.47,0006.89,0005.67
2021-09-12 15:54:00,,0832.5,4.99,0.00,29.9,29.0,00.0,38.9,31.7,27.6,0000.8,0013.84,0006.92,0005.73
2021-09-12 15:55:00,,0832.6,5.01,0.00,29.9,29.1,00.0,38.9,31.8,27.7,0000.5,0013.92,0007.01,0005.78
2021-09-12 15:56:00,,0832.6,5.00,0.00,30.0,29.1,00.0,38.9,31.8,28.1,0000.3,0013.85,0007.08,0005.83
2021-09-12 15:57:00,,0832.6,5.00,0.00,30.0,29.2,00.0,39.0,31.9,28.6,0000.5,0014.14,0007.18,0005.87
2021-09-12 15:58:00,,0832.6,5.00,0.00,30.0,29.2,00.0,39.0,31.9,28.8,0000.8,0015.24,0007.26,0005.94
2021-09-12 15:59:00,,0832.7,5.00,0.00,30.1,29.2,00.0,39.0,31.9,28.8,0001.2,0015.69,0007.36,0006.00
